Terminal Aerodrome Forecast
Issued by NWS Dallas/Fort Worth, TX

Home | Current Version | Previous Version | Text Only | Print | Product List | Glossary On
Versions: 1 2 3 4 5 6 7 8 9 10 11 12 13 14 15 16 17 18 19 20 21 22 23 24 25 26 27 28
232
FTUS44 KFWD 240520
TAFACT
TAF
KACT 240520Z 2406/2506 35008KT P6SM FEW300
     FM241200 33012KT P6SM FEW300
     FM241600 33016G26KT P6SM SKC
     FM250000 33009KT P6SM SKC=

USA.gov is the U.S. government's official web portal to all federal, state and local government web resources and services.